Regional Weather Roundup
Issued by NWS

Home | Current Version | Previous Version | Text Only | Print | Product List | Glossary Off
Versions: 1 2 3 4 5 6 7 8 9 10 11 12 13 14 15 16 17 18 19 20 21 22 23 24 25 26 27 28 29 30 31 32 33 34 35 36 37 38 39 40 41 42 43 44 45 46 47 48 49 50

000
ASUS43 KLMK 310302
RWRKY
KENTUCKY REGIONAL WEATHER ROUNDUP
NATIONAL WEATHER SERVICE LOUISVILLE KY
1100 PM EDT WED JUL 30 2014

NOTE "FAIR" INDICATES FEW OR NO CLOUDS BELOW 12,000 FEET
WITH NO SIGNIFICANT WEATHER AND/OR OBSTRUCTIONS TO VISIBILITY.

KYZ001>023-026-027-061>063-070>075-310400-
WESTERN AND SOUTH CENTRAL KENTUCKY

CITY           SKY/WX    TMP DP  RH WIND       PRES   REMARKS
PADUCAH        MOCLDY    67  62  84 CALM      30.07R
HENDERSON      MOCLDY    64  59  82 SW3       30.07R
OWENSBORO      MOCLDY    68  61  78 CALM      30.08R
HOPKINSVILLE   MOCLDY    67  57  69 N2        30.08R
BOWLING GREEN  PTCLDY    69  56  62 CALM      30.08S
GLASGOW        CLOUDY    66  58  75 CALM      30.09R
$$

KYZ024-025-028>034-038-045-046-053-310400-
NORTH CENTRAL KENTUCKY

CITY           SKY/WX    TMP DP  RH WIND       PRES   REMARKS
LOUISVILLE/SDF PTCLDY    73  59  61 NW3       30.07R
LOUISVILLE/LOU CLEAR     72  58  61 CALM      30.08R
FORT KNOX      PTCLDY    66  60  81 CALM      30.07R
$$

KYZ035>037-039>044-047>052-055>060-089>105-310400-
NORTHEAST KENTUCKY

CITY           SKY/WX    TMP DP  RH WIND       PRES   REMARKS
LEXINGTON      CLEAR     67  57  70 S5        30.09S
COVINGTON      MOCLDY    69  58  67 SW3       30.07S
FRANKFORT      CLEAR     64  59  83 CALM      30.07R
$$

KYZ054-064>069-076>088-106>120-310400-
SOUTHEAST KENTUCKY

CITY           SKY/WX    TMP DP  RH WIND       PRES   REMARKS
JACKSON        PTCLDY    67  58  72 CALM      30.11S
LONDON         PTCLDY    67  59  75 CALM      30.12R
SOMERSET       CLEAR     63  63 100 CALM      30.11S
MIDDLESBORO    MOCLDY    63  59  86 CALM      30.13S
MONTICELLO     MOCLDY    62  61  97 CALM      30.12S
$$




USA.gov is the U.S. government's official web portal to all federal, state and local government web resources and services.